Regional Weather Roundup
Issued by NWS State College, PA

Home | Current Version | Previous Version | Graphics & Text | Print | Product List | Glossary Off
Versions: 1 2 3 4 5 6 7 8 9 10 11 12 13 14 15 16 17 18 19 20 21 22 23 24 25 26 27 28 29 30 31 32 33 34 35 36 37 38 39 40 41 42 43 44 45 46 47 48 49 50

000
ASUS41 KCTP 220303
RWRCTP

REGIONAL WEATHER ROUNDUP
NATIONAL WEATHER SERVICE STATE COLLEGE PA
1100 PM EDT SUN MAY 21 2017

Note: "fair" indicates few or no clouds below 12,000 feet with no
significant weather and/or obstructions to visibility.

* = STATION THAT DOES NOT REPORT PRECIPITATION /E.G. RAIN...SNOW...ETC/
    THUNDER OR FOG.

PAZ002>004-007>009-013>016-020>023-029>032-220400-
WESTERN PENNSYLVANIA

CITY           SKY/WX    TMP DP  RH WIND       PRES   REMARKS
ERIE           CLOUDY    63  60  90 S13       29.94S
MEADVILLE      CLOUDY    66  64  93 S8        29.99F
FRANKLIN*      CLOUDY    61  59  94 SE8       30.03F
NEW CASTLE     CLOUDY    66  65  96 SE3       30.02F
BEAVER COUNTY  NOT AVBL
BUTLER*        CLOUDY    66  63  88 S6        30.04S
PITTSBURGH INT LGT RAIN  66  65  96 S6        30.03F
PITTSBURGH     CLOUDY    65  62  90 SE3       30.04F
INDIANA*       CLOUDY    57  54  88 S8G17     30.10F
LATROBE        CLOUDY    61  57  88 CALM      30.07F
WASHINGTON CO* CLOUDY    64  63  94 S3        30.07S
$$

PAZ004>006-010>012-017>019-024>028-033>037-041-042-045-046-049>053-220400-
CENTRAL PENNSYLVANIA

CITY           SKY/WX    TMP DP  RH WIND       PRES   REMARKS
BRADFORD       RAIN      50  50 100 SE10      30.08S FOG
DUBOIS         CLOUDY    53  49  86 SE9       30.07F
CLEARFIELD     CLOUDY    54  50  86 CALM      30.13F
JOHNSTOWN      CLOUDY    54  50  86 S8        30.12F
ALTOONA        CLOUDY    59  50  72 VRB5      30.15F
STATE COLLEGE  LGT RAIN  57  47  67 S7        30.15S
WILLIAMSPORT   CLOUDY    63  39  41 VRB3      30.14S
SELINSGROVE    CLOUDY    61  46  57 S12       30.17F
FT INDIANTOWN  CLOUDY    59  48  65 SE6       30.21S
CAPITAL CITY   CLOUDY    62  48  60 SE10      30.20S
HARRISBURG     CLOUDY    61  50  67 SE13      30.19F
YORK           CLOUDY    59  51  75 SE9       30.20F
$$

PAZ038>040-043-044-047-048-054-055-060>062-067>071-220400-
EASTERN PENNSYLVANIA

CITY           SKY/WX    TMP DP  RH WIND       PRES   REMARKS
SCRANTON       CLOUDY    61  37  41 VRB6      30.17F
MOUNT POCONO   CLOUDY    53  35  50 S10       30.21F
ALLENTOWN      CLOUDY    62  38  40 SE10      30.22F
QUAKERTOWN*    CLOUDY    59  41  51 SE7       30.24S
READING        CLOUDY    60  47  61 S6        30.21F
LANCASTER      CLOUDY    59  50  72 SE12      30.22S
COATESVILLE    CLOUDY    57  50  77 VRB5      30.24F
POTTSTOWN      CLOUDY    59  42  53 VRB5      30.24F
BLUE BELL      CLOUDY    55  46  71 SE6       30.26S
DOYLESTOWN     CLOUDY    57 N/A N/A S8        30.24F
WILLOW GROVE   NOT AVBL
NORTH PHILA    CLOUDY    58  48  69 SE8       30.27F
PHILADELPHIA   CLOUDY    59  48  67 SE8       30.26S
$$




USA.gov is the U.S. government's official web portal to all federal, state and local government web resources and services.